FW1398 Weather Reports


time (UTC)temp
C
wind
direction
speed
KPH
gust
KPH
rain 1hr
cm
rain 24hr
cm
rain mn
cm
humidity
%
barometer
mb
20260502162329 29 106 11.3 20.9 0.00 0.00 0.00 28 1013.6
20260502161828 29 78 6.4 17.7 0.00 0.00 0.00 28 1013.6
20260502161328 28 79 8.0 17.7 0.00 0.00 0.00 28 1013.4
20260502160827 28 86 9.7 20.9 0.00 0.00 0.00 28 1013.6
20260502160325 28 87 12.9 20.9 0.00 0.00 0.00 28 1013.6
20260502152324 27 72 4.8 9.7 0.00 0.00 0.00 24 1013.2
20260502151824 27 87 4.8 8.0 0.00 0.00 0.00 25 1013.1
20260502151324 27 75 1.6 6.4 0.00 0.00 0.00 24 1013.2
20260502150823 26 30 3.2 6.4 0.00 0.00 0.00 24 1013.0
20260502150324 26 344 1.6 6.4 0.00 0.00 0.00 25 1013.1
20260502130319 20 59 1.6 4.8 0.00 0.00 0.00 33 1011.8
20260502123318 20 32 3.2 3.2 0.00 0.00 0.00 35 1011.3
20260502122819 19 31 0.0 1.6 0.00 0.00 0.00 37 1011.3
20260502122317 20 31 0.0 0.0 0.00 0.00 0.00 38 1011.2
20260502121813 20 75 0.0 0.0 0.00 0.00 0.00 32 1011.2
20260502121312 20 25 0.0 0.0 0.00 0.00 0.00 33 1011.1
20260502120813 20 25 0.0 1.6 0.00 0.00 0.00 33 1011.1
20260502120312 21 25 0.0 3.2 0.00 0.00 0.00 32 1011.1
20260502115812 21 25 1.6 3.2 0.00 0.00 0.00 30 1011.1
20260502115312 21 25 1.6 4.8 0.00 0.00 0.00 28 1011.1
20260502114813 22 3 3.2 4.8 0.00 0.00 0.00 28 1011.0
20260502114312 22 28 3.2 6.4 0.00 0.00 0.00 29 1011.0
20260502113812 21 25 3.2 6.4 0.00 0.00 0.00 29 1010.9
20260502113312 21 23 3.2 4.8 0.00 0.00 0.00 29 1010.9
20260502112812 22 62 3.2 4.8 0.00 0.00 0.00 28 1010.9
20260502112312 22 62 3.2 4.8 0.00 0.00 0.00 30 1010.9
20260502111813 22 51 1.6 4.8 0.00 0.00 0.00 28 1010.9
20260502111312 22 35 0.0 4.8 0.00 0.00 0.00 27 1010.9
20260502110811 22 8 3.2 6.4 0.00 0.00 0.00 28 1010.9
20260502110312 22 343 3.2 6.4 0.00 0.00 0.00 28 1010.9
20260502105809 22 357 4.8 6.4 0.00 0.00 0.00 29 1010.9
20260502105309 22 334 3.2 4.8 0.00 0.00 0.00 28 1010.9
20260502104807 22 338 1.6 4.8 0.00 0.00 0.00 28 1010.9
20260502104307 22 344 3.2 4.8 0.00 0.00 0.00 28 1010.8
20260502103806 22 0 3.2 6.4 0.00 0.00 0.00 28 1010.7
20260502103307 22 343 3.2 6.4 0.00 0.00 0.00 28 1010.7
20260502102807 22 348 3.2 6.4 0.00 0.00 0.00 28 1010.7
20260502102306 22 338 3.2 6.4 0.00 0.00 0.00 28 1010.5
20260502101805 22 337 3.2 6.4 0.00 0.00 0.00 28 1010.4
20260502101306 22 334 3.2 8.0 0.00 0.00 0.00 27 1010.4
20260502100805 23 334 3.2 11.3 0.00 0.00 0.00 27 1010.5
20260502100304 23 0 4.8 11.3 0.00 0.00 0.00 27 1010.5
20260502091302 23 345 4.8 14.5 0.00 0.00 0.00 26 1010.2
20260502090801 23 4 6.4 14.5 0.00 0.00 0.00 27 1010.2
20260502090301 22 3 4.8 9.7 0.00 0.00 0.00 28 1010.2
20260502071300 23 217 0.0 0.0 0.00 0.00 0.00 27 1009.5
20260502070801 23 217 0.0 1.6 0.00 0.00 0.00 26 1009.5
20260502070300 23 217 0.0 3.2 0.00 0.00 0.00 26 1009.5
20260502065801 23 217 0.0 4.8 0.00 0.00 0.00 28 1009.5
20260502065301 24 217 1.6 6.4 0.00 0.00 0.00 25 1009.5
20260502064801 24 158 3.2 6.4 0.00 0.00 0.00 25 1009.5
20260502064301 23 113 3.2 4.8 0.00 0.00 0.00 26 1009.5
20260502063801 24 313 3.2 6.4 0.00 0.00 0.00 25 1009.6
20260502063301 24 196 3.2 6.4 0.00 0.00 0.00 25 1009.5
20260502062801 23 152 1.6 4.8 0.00 0.00 0.00 26 1009.4
20260502062300 23 78 0.0 0.0 0.00 0.00 0.00 28 1009.4
20260502061800 23 59 0.0 0.0 0.00 0.00 0.00 28 1009.3
20260502061300 23 59 0.0 0.0 0.00 0.00 0.00 27 1009.2
20260502060800 23 157 0.0 0.0 0.00 0.00 0.00 28 1009.3
20260502060259 23 157 0.0 0.0 0.00 0.00 0.00 27 1009.2
20260502055759 24 157 0.0 0.0 0.00 0.00 0.00 27 1009.1
20260502055300 24 166 0.0 0.0 0.00 0.00 0.00 26 1009.1
20260502054800 24 166 0.0 0.0 0.00 0.00 0.00 26 1009.1
20260502054300 24 166 0.0 0.0 0.00 0.00 0.00 27 1009.1
20260502053759 24 157 0.0 0.0 0.00 0.00 0.00 29 1009.0
20260502053300 24 142 0.0 3.2 0.00 0.00 0.00 26 1009.1
20260502052759 24 142 1.6 3.2 0.00 0.00 0.00 28 1009.1
20260502052259 25 111 1.6 3.2 0.00 0.00 0.00 25 1009.1
20260502051800 25 97 1.6 3.2 0.00 0.00 0.00 29 1009.0
20260502051300 25 97 0.0 4.8 0.00 0.00 0.00 27 1008.9
20260502050759 25 94 1.6 4.8 0.00 0.00 0.00 24 1008.8
20260502050300 25 97 3.2 4.8 0.00 0.00 0.00 25 1008.8
20260502045800 26 117 1.6 3.2 0.00 0.00 0.00 24 1008.8
20260502045301 26 117 3.2 3.2 0.00 0.00 0.00 24 1008.8
20260502044805 26 121 1.6 3.2 0.00 0.00 0.00 23 1008.8
20260502044258 26 117 1.6 3.2 0.00 0.00 0.00 23 1008.7
20260502043758 26 124 1.6 3.2 0.00 0.00 0.00 24 1008.8
20260502043302 26 144 1.6 3.2 0.00 0.00 0.00 22 1008.7
20260502042800 27 144 1.6 3.2 0.00 0.00 0.00 21 1008.7
20260502042257 27 141 3.2 4.8 0.00 0.00 0.00 21 1008.6
20260502041756 27 140 1.6 4.8 0.00 0.00 0.00 21 1008.6
20260502041256 27 142 3.2 4.8 0.00 0.00 0.00 22 1008.7
20260502040756 27 111 1.6 3.2 0.00 0.00 0.00 22 1008.6
20260502040256 27 121 1.6 4.8 0.00 0.00 0.00 22 1008.5
20260502035756 27 123 1.6 4.8 0.00 0.00 0.00 21 1008.4
20260502035256 27 111 1.6 4.8 0.00 0.00 0.00 21 1008.4
20260502034756 27 111 1.6 3.2 0.00 0.00 0.00 21 1008.4
20260502034256 27 123 1.6 4.8 0.00 0.00 0.00 21 1008.3
20260502033755 28 104 1.6 4.8 0.00 0.00 0.00 20 1008.3
20260502033256 28 138 1.6 4.8 0.00 0.00 0.00 20 1008.2
20260502032756 28 138 1.6 6.4 0.00 0.00 0.00 19 1008.2
20260502032256 28 162 3.2 6.4 0.00 0.00 0.00 19 1008.1
20260502031755 28 145 3.2 6.4 0.00 0.00 0.00 19 1008.1
20260502031256 28 168 1.6 6.4 0.00 0.00 0.00 19 1008.0
20260502030755 29 152 3.2 8.0 0.00 0.00 0.00 19 1008.0
20260502030255 29 151 4.8 8.0 0.00 0.00 0.00 19 1007.8
20260502025755 29 140 4.8 8.0 0.00 0.00 0.00 19 1007.8
20260502025255 29 154 4.8 8.0 0.00 0.00 0.00 19 1007.6
20260502024755 29 182 4.8 8.0 0.00 0.00 0.00 19 1007.6
20260502024254 29 175 3.2 6.4 0.00 0.00 0.00 19 1007.6
20260502023754 29 168 3.2 8.0 0.00 0.00 0.00 19 1007.6
20260502023254 30 172 3.2 8.0 0.00 0.00 0.00 19 1007.5
20260502022754 30 179 4.8 9.7 0.00 0.00 0.00 19 1007.4
20260502022253 30 166 4.8 9.7 0.00 0.00 0.00 19 1007.3
20260502021754 30 179 4.8 11.3 0.00 0.00 0.00 19 1007.2
20260502021254 30 216 6.4 11.3 0.00 0.00 0.00 19 1007.4
20260502020752 30 159 4.8 16.1 0.00 0.00 0.00 19 1007.2
20260502020253 30 179 8.0 16.1 0.00 0.00 0.00 19 1007.2
20260502015753 30 210 6.4 11.3 0.00 0.00 0.00 18 1007.1
20260502015252 30 131 6.4 11.3 0.00 0.00 0.00 19 1007.1
20260502014753 30 162 4.8 11.3 0.00 0.00 0.00 19 1007.0
20260502014253 31 206 3.2 8.0 0.00 0.00 0.00 19 1007.1
20260502013752 31 200 3.2 8.0 0.00 0.00 0.00 19 1007.1
20260502013251 31 210 3.2 9.7 0.00 0.00 0.00 19 1007.1
20260502012751 31 221 4.8 9.7 0.00 0.00 0.00 19 1007.1
20260502012252 31 193 6.4 16.1 0.00 0.00 0.00 19 1007.1
20260502011752 31 224 4.8 16.1 0.00 0.00 0.00 19 1007.1
20260502011252 31 237 4.8 9.7 0.00 0.00 0.00 18 1007.1
20260502010752 31 261 1.6 11.3 0.00 0.00 0.00 18 1007.1
20260502010252 31 216 6.4 11.3 0.00 0.00 0.00 16 1007.2
20260502005752 31 203 4.8 8.0 0.00 0.00 0.00 18 1007.2
20260502005250 31 192 4.8 9.7 0.00 0.00 0.00 19 1007.2
20260502004751 31 271 4.8 17.7 0.00 0.00 0.00 19 1007.2
20260502004251 31 219 4.8 17.7 0.00 0.00 0.00 19 1007.3
20260502003750 31 290 6.4 16.1 0.00 0.00 0.00 19 1007.3
20260502003252 31 275 8.0 17.7 0.00 0.00 0.00 19 1007.3
20260502002750 31 247 8.0 17.7 0.00 0.00 0.00 19 1007.3
20260502002249 32 240 8.0 11.3 0.00 0.00 0.00 20 1007.4
20260502001749 31 275 4.8 17.7 0.00 0.00 0.00 21 1007.3
20260502001246 32 231 6.4 17.7 0.00 0.00 0.00 19 1007.4
20260502000747 31 279 3.2 9.7 0.00 0.00 0.00 20 1007.3
20260502000248 31 252 4.8 14.5 0.00 0.00 0.00 21 1007.3
20260501235747 31 176 6.4 14.5 0.00 0.00 0.00 20 1007.5
20260501235247 31 233 6.4 14.5 0.00 0.00 0.00 20 1007.5
20260501234747 31 271 3.2 17.7 0.00 0.00 0.00 21 1007.6
20260501234245 31 268 9.7 17.7 0.00 0.00 0.00 20 1007.5
20260501233745 32 272 6.4 17.7 0.00 0.00 0.00 20 1007.5
20260501233245 31 217 4.8 11.3 0.00 0.00 0.00 21 1007.5
20260501232746 31 219 4.8 14.5 0.00 0.00 0.00 21 1007.5
20260501232245 31 274 4.8 14.5 0.00 0.00 0.00 21 1007.6
20260501231746 31 212 6.4 14.5 0.00 0.00 0.00 22 1007.5
20260501231245 31 248 6.4 17.7 0.00 0.00 0.00 21 1007.6
20260501230745 31 192 8.0 17.7 0.00 0.00 0.00 22 1007.6
20260501230245 31 79 4.8 17.7 0.00 0.00 0.00 22 1007.6
20260501225745 31 286 9.7 17.7 0.00 0.00 0.00 22 1007.8
20260501225244 31 250 6.4 16.1 0.00 0.00 0.00 21 1007.8
20260501224744 31 234 9.7 16.1 0.00 0.00 0.00 21 1007.9
20260501224243 32 282 6.4 14.5 0.00 0.00 0.00 21 1008.0
20260501223743 31 282 6.4 16.1 0.00 0.00 0.00 21 1008.1
20260501223241 31 220 9.7 16.1 0.00 0.00 0.00 20 1008.2
20260501222740 31 286 6.4 14.5 0.00 0.00 0.00 20 1008.2
20260501222240 31 0 1.6 17.7 0.00 0.00 0.00 21 1008.3
20260501221740 31 262 8.0 22.5 0.00 0.00 0.00 20 1008.4
20260501221238 31 149 6.4 22.5 0.00 0.00 0.00 20 1008.4
20260501220739 31 133 4.8 17.7 0.00 0.00 0.00 20 1008.5
20260501220238 31 178 3.2 16.1 0.00 0.00 0.00 19 1008.6
20260501215738 31 149 4.8 16.1 0.00 0.00 0.00 19 1008.6
20260501215238 30 303 3.2 11.3 0.00 0.00 0.00 20 1008.7
20260501214737 30 213 6.4 11.3 0.00 0.00 0.00 21 1008.9
20260501214239 30 138 6.4 11.3 0.00 0.00 0.00 22 1008.9
20260501213738 30 219 3.2 14.5 0.00 0.00 0.00 22 1008.9
20260501213237 30 220 8.0 14.5 0.00 0.00 0.00 23 1009.0
20260501212738 30 245 6.4 19.3 0.00 0.00 0.00 23 1009.1
20260501212238 30 193 9.7 19.3 0.00 0.00 0.00 23 1009.2
20260501211737 30 172 4.8 16.1 0.00 0.00 0.00 23 1009.3
20260501211237 30 196 6.4 14.5 0.00 0.00 0.00 24 1009.4
20260501210736 30 152 4.8 14.5 0.00 0.00 0.00 23 1009.3
20260501210236 30 220 3.2 16.1 0.00 0.00 0.00 23 1009.4
20260501205736 30 221 9.7 16.1 0.00 0.00 0.00 23 1009.5
20260501205235 30 292 6.4 9.7 0.00 0.00 0.00 23 1009.5
20260501204735 29 307 3.2 11.3 0.00 0.00 0.00 23 1009.6
20260501204235 30 247 4.8 16.1 0.00 0.00 0.00 23 1009.7
20260501203735 29 171 8.0 16.1 0.00 0.00 0.00 24 1009.7
20260501203236 29 131 4.8 20.9 0.00 0.00 0.00 24 1009.7
20260501202735 30 182 6.4 20.9 0.00 0.00 0.00 24 1009.9
20260501202235 29 221 6.4 17.7 0.00 0.00 0.00 26 1009.9
20260501201735 29 243 11.3 19.3 0.00 0.00 0.00 25 1009.8
20260501201234 29 235 8.0 19.3 0.00 0.00 0.00 26 1009.9
20260501200734 29 289 3.2 14.5 0.00 0.00 0.00 25 1009.9
20260501200234 29 235 8.0 19.3 0.00 0.00 0.00 26 1010.1
20260501195735 29 268 11.3 19.3 0.00 0.00 0.00 25 1010.1
20260501195234 29 183 8.0 19.3 0.00 0.00 0.00 26 1010.2
20260501194734 29 316 6.4 11.3 0.00 0.00 0.00 26 1010.2
20260501194234 28 189 3.2 14.5 0.00 0.00 0.00 27 1010.2
20260501193733 28 276 6.4 14.5 0.00 0.00 0.00 26 1010.4
20260501193233 29 300 6.4 11.3 0.00 0.00 0.00 26 1010.4
20260501192731 28 131 0.0 14.5 0.00 0.00 0.00 27 1010.4
20260501192232 28 220 8.0 14.5 0.00 0.00 0.00 26 1010.7
20260501191732 29 158 4.8 17.7 0.00 0.00 0.00 26 1010.7
20260501191233 28 176 6.4 17.7 0.00 0.00 0.00 27 1010.8
20260501190733 28 127 6.4 17.7 0.00 0.00 0.00 27 1010.9
20260501190234 28 286 9.7 17.7 0.00 0.00 0.00 27 1010.8
20260501185732 28 345 6.4 9.7 0.00 0.00 0.00 28 1010.8
20260501185231 27 276 4.8 11.3 0.00 0.00 0.00 30 1011.0
20260501184732 27 243 6.4 11.3 0.00 0.00 0.00 29 1011.1
20260501184231 27 155 6.4 9.7 0.00 0.00 0.00 31 1011.1
20260501183732 27 125 3.2 9.7 0.00 0.00 0.00 30 1011.2
20260501183232 27 180 1.6 9.7 0.00 0.00 0.00 31 1011.2
20260501182732 27 197 4.8 14.5 0.00 0.00 0.00 31 1011.4
20260501182231 27 197 8.0 14.5 0.00 0.00 0.00 30 1011.5
20260501181730 27 221 8.0 14.5 0.00 0.00 0.00 31 1011.5
20260501181232 27 272 3.2 11.3 0.00 0.00 0.00 31 1011.6
20260501180730 26 245 1.6 9.7 0.00 0.00 0.00 31 1011.7
20260501180230 27 228 4.8 11.3 0.00 0.00 0.00 30 1011.7
20260501175730 27 158 6.4 11.3 0.00 0.00 0.00 31 1011.7
20260501175230 26 152 6.4 11.3 0.00 0.00 0.00 32 1011.7
20260501174730 26 175 1.6 8.0 0.00 0.00 0.00 33 1011.8
20260501174231 26 142 4.8 14.5 0.00 0.00 0.00 32 1011.9
20260501173729 26 310 4.8 14.5 0.00 0.00 0.00 32 1011.9
20260501173229 26 165 1.6 14.5 0.00 0.00 0.00 33 1011.9
20260501172729 26 176 4.8 14.5 0.00 0.00 0.00 33 1011.9
20260501172229 26 142 4.8 9.7 0.00 0.00 0.00 33 1011.9
20260501171729 26 254 0.0 6.4 0.00 0.00 0.00 33 1012.0
20260501171229 26 343 3.2 8.0 0.00 0.00 0.00 33 1011.9
20260501170729 26 213 4.8 9.7 0.00 0.00 0.00 34 1012.0
20260501170229 26 161 4.8 9.7 0.00 0.00 0.00 34 1011.9
20260501165729 26 241 3.2 9.7 0.00 0.00 0.00 33 1011.9
20260501165228 26 228 3.2 8.0 0.00 0.00 0.00 34 1011.9
20260501164730 25 302 3.2 9.7 0.00 0.00 0.00 34 1011.8
20260501164229 25 168 3.2 9.7 0.00 0.00 0.00 35 1011.9
20260501163729 25 203 3.2 9.7 0.00 0.00 0.00 35 1012.0
20260501163229 25 212 3.2 9.7 0.00 0.00 0.00 35 1012.0
20260501162728 25 220 1.6 11.3 0.00 0.00 0.00 36 1011.9